OBJECT AZ, 62656

Orbit data source: Space-Track

You're viewing an Uncataloged Satellite

Recently launched and/or uncataloged satellites may have evolving metadata. Metadata may include but not limited to: Owner, Maufacturer, Bus, Motor, and Mission.

OBJECT AZ, 62656 is a satellite in SSO that was launched on Tue, 14 Jan 2025 UTC via an FALCON 9 launch vehicle from the Air Force Western Test Range (AFWTR). Unknown objects in Earth's orbit typically refer to objects detected orbiting the Earth but have not yet been identified or cataloged. These objects could be anything from previously untracked satellites, spent rocket stages, debris from satellite collisions, or even natural meteoroids temporarily captured by Earth's gravity.

Loading next visibility...
Identifier
62656, 2025-009AZ
Orbit
SSO
Country
Flag of TBDTBD
Related business
None
Manufacturer
Unknown
Mission
Operational Civil Technology
Bus & Motor
Unknown
Mass
Unknown
Launch date (UTC)
2025-01-14 (1 year ago)
Launch vehicle
FALCON 9
Launch site
Air Force Western Test Range (AFWTR)
Object type
Unknown
Shape & HBR
Box, 0.1 m
Radar Cross Section
0.035 m², Small (<0.1 m²)

Expand to show TLE details & history
Last TLE update: 16 hours ago

TLE from 16 hours ago
0 OBJECT AZ
1 62656U 25009AZ  26127.19807964  .00009482  00000-0  30925-3 0  9998
2 62656  97.3936 210.3252 0002590 114.0920 246.0593 15.32009410 72746
Epoch: 2026-05-07T04:45Z
TLE epoch observation values (Epoch: 2026-05-07T04:45:14.080Z)
Latitude
-0.00003°
Longitude
-86.03113°
Altitude
473.645 km
Speed
7.629 km/s
True Right ascension
14h 01m 18s
True Declination
0° 00' 00"
Sunlit
Object was in full shadow at epoch
Visualization orbit readout
Latitude
Unknown
Longitude
Unknown
Altitude
Unknown
Speed
Unknown
Apparent Right ascension
Unknown
Apparent Declination
Unknown
Sunlit
N/A
Visualization observer readout
Local Sidereal Time
05:16:49
Azimuth
Unknown
Elevation
Unknown
Doppler factor
Unknown
Orbital elements
Apogee altitude
468.54 km
Perigee altitude
464.994 km
Semi-major axis
6,844.904 km
Eccentricity
0.00026
Inclination
97.3936°
RAAN
210.3252°
Arg. of periapsis
114.092°
True anomaly
246.03218°
Mean anomaly
246.0593°
Eccentric anomaly
246.04574°
Mean motion
3.83259 °/min
Orbital period
93.93 mins
BSTAR
0.00030925
Loading maneuver chart data...
Computing Atmospheric mass density...
Loading historical data...
Loading historical data...
Loading historical data...
Loading historical data...
Loading historical data...
Loading historical data...
Loading historical data...

Documentation

Showing up to 5 results
|